Flag for Colombia Weather past 2 weeks in Barranquilla, Colombia

Now
91 °F

Scattered clouds.


Feels Like: 105 °F
Forecast: N/A
Wind: 13 mph from Northeast

Location: Barranquilla / Ernestocortissoz

Current Time: Jul 23, 2014 at 3:54:07 PM

Latest Report: Jul 23, 2014 at 3:00 PM


Visibility: N/A

Pressure: 29.75 "Hg

Humidity: 63%

Dew point: 77 °F

Location of BarranquillaLocation

Historic Weather in Barranquilla — Graph

°F

Barranquilla temperature yesterday

Maximum temperature yesterday: 93 °F (at 12:00 PM)
Minimum temperature yesterday: 81 °F (at 2:00 AM)
Average temperature yesterday: 84 °F

Past Weeks' High & Low Weather Summary

 TemperatureHumidityPressure
High99 °F (Jul 20, 12:00 PM)100% (Jul 14, 6:00 AM)29.91 "Hg (Jul 14, 6:00 AM)
Low77 °F (Jul 15, 3:00 AM)47% (Jul 20, 12:00 PM)29.72 "Hg (Jul 11, 6:00 PM)
Average85 °F79%29.81 "Hg
* Reported Jul 8 2:00 PM — Jul 23 2:00 PM, Barranquilla, Weather by CustomWeather, © 2014

Note: Actual official high and low records may vary slightly from our data, if they occured in-between our weather recording intervals... More about our weather records

Advertising

Barranquilla weather history for previous 24 hours

 ConditionsComfort  
Time TempWeatherWind HumidityBarometerVisibility
2:00 PM
Jul 23
91 °FScattered clouds.6 mph59%29.76 "HgN/A
1:00 PM93 °FScattered clouds.13 mph56%29.78 "HgN/A
12:00 PM93 °FScattered clouds.8 mph56%29.80 "HgN/A
11:00 AM91 °FScattered clouds.12 mph63%29.82 "HgN/A
10:00 AM91 °FPartly sunny.5 mph63%29.82 "HgN/A
9:00 AM88 °FPartly sunny.5 mph70%29.82 "HgN/A
8:00 AM84 °FPartly sunny.7 mph74%29.82 "HgN/A
7:00 AM82 °FPartly sunny.8 mph79%29.81 "HgN/A
6:00 AM81 °FPartly sunny.9 mph84%29.80 "HgN/A
5:00 AM81 °FClear.6 mph84%29.78 "Hg10 mi
4:00 AM81 °FClear.6 mph84%29.77 "Hg10 mi
3:00 AM82 °FClear.8 mph79%29.76 "Hg10 mi
1:00 AM84 °FClear.9 mph70%29.79 "Hg10 mi
12:00 AM82 °FClear.9 mph84%29.80 "Hg10 mi
11:00 PM
Jul 22
82 °FClear.13 mph84%29.82 "Hg10 mi
10:00 PM82 °FClear.15 mph84%29.82 "Hg10 mi
9:00 PM82 °FClear.18 mph84%29.81 "Hg10 mi
8:00 PM82 °FClear.12 mph79%29.79 "Hg10 mi
7:00 PM84 °FPassing clouds.14 mph74%29.77 "HgN/A
Weather by CustomWeather, © 2014

See weather overviewHow to use our weather pages